Powrót do katalogu

STARLINK-34092

AktywnyŁącznośćVLEO
NORAD 63904·PAYLOAD·🇺🇸 United States

Wystrzelony May 10, 2025 z Cape Canaveral Space Force Station

Loading…

Następne Przeloty (najbliższe 24 godziny)

TLE

ŚwieżeSource: CelesTrak SupGP

Epoka: Sep 14, 2026, 21:03 UTC

1 63904C 25095Q   26257.87756944  .00002476  00000+0  89674-4 0  2578
2 63904  43.0008 188.0509 0001365 262.9908 273.4314 15.27576982    18

Śledź STARLINK-34092 w czasie rzeczywistym z AllMySat

Download on the App Store